Sergeant Bluff, IA

8:14 AM CST on January 22, 2017 (GMT -0600)
Sioux Gateway

Weather History for KSUX - November, 2011

Change the Weather History Date:

Sunday, November 6, 2011

  Actual Average Record
Temperature  
Mean Temperature 43 °F 41 °F  
Max Temperature 55 °F 52 °F 80 °F (2004)
Min Temperature 31 °F 30 °F -3 °F (1991)
Degree Days  
Heating Degree Days 22 24  
Month to date heating degree days 131 135  
Since 1 July heating degree days 685 735  
Cooling Degree Days 0 0  
Month to date cooling degree days 0 0  
Year to date cooling degree days 1093 869  
Moisture  
Dew Point 30 °F    
Average Humidity 57    
Maximum Humidity 77    
Minimum Humidity 26    
Precipitation  
Precipitation 0.00 in 0.05 in 0.86 in (1946)
Month to date precipitation 0.03 0.28  
Year to date precipitation 23.33 25.91  
Snow  
Snow 0.00 in 0.10 in 3.40 in (1990)
Month to date snowfall 0.0 0.5  
Since 1 July snowfall 0.0 1.5  
Since 1 September snowfall 0.0 1.5  
Snow Depth 0.00 in    
Sea Level Pressure  
Sea Level Pressure 29.79 in    
Wind  
Wind Speed 13 mph (WSW)    
Max Wind Speed 25 mph    
Max Gust Speed 35 mph    
Visibility 10 miles    
Events      
T = Trace of Precipitation, MM = Missing Value Source: NWS Daily Summary

Daily Weather History Graph

Daily Weather History Graph

Search for Another Location

Airport or City:

Trip Planner

Search our weather history database for the weather conditions in past years. The results will help you decide how hot, cold, wet, or windy it might be!

Date:

Astronomy

Nov. 06, 2011 Rise Set
Actual Time 7:04 AM CST 5:12 PM CST
Civil Twilight 6:35 AM CST 5:42 PM CST
Nautical Twilight 6:01 AM CST 6:15 PM CST
Astronomical Twilight 5:28 AM CST 6:48 PM CST
Moon 3:00 PM CST (11/6) 3:08 AM CST (11/6)
Length of Visible Light 11h 07m
Length of Day
10h 08m
Waxing Gibbous, 86% of the Moon is Illuminated
Nov 6
Waxing Gibbous
Nov 10
Full
Nov 18
Last Quarter
Nov 25
New
Dec 2
First Quarter

Hourly Weather History & Observations

Time (CST) Temp. Windchill Dew Point Humidity Pressure Visibility Wind Dir Wind Speed Gust Speed Precip Events Conditions
12:52 AM 51.1 °F - 41.0 °F 68% 29.57 in 10.0 mi SSE 17.3 mph 24.2 mph N/A   Scattered Clouds
1:52 AM 51.1 °F - 41.0 °F 68% 29.54 in 10.0 mi SSE 18.4 mph 28.8 mph N/A   Clear
1:52 AM 50.0 °F - 39.9 °F 68% 29.53 in 10.0 mi SSE 17.3 mph 23.0 mph N/A   Clear
2:52 AM 52.0 °F - 41.0 °F 66% 29.51 in 10.0 mi South 19.6 mph 29.9 mph N/A   Clear
3:52 AM 52.0 °F - 41.0 °F 66% 29.53 in 10.0 mi South 18.4 mph 27.6 mph N/A   Clear
4:52 AM 51.1 °F - 41.0 °F 68% 29.54 in 10.0 mi South 19.6 mph 28.8 mph N/A   Clear
5:52 AM 46.0 °F 38.0 °F 37.0 °F 71% 29.60 in 10.0 mi WNW 21.9 mph 28.8 mph N/A   Clear
5:59 AM 44.6 °F 35.5 °F 35.6 °F 71% 29.59 in 10.0 mi WNW 25.3 mph 31.1 mph N/A   Clear
6:52 AM 39.9 °F 31.4 °F 33.1 °F 77% 29.68 in 10.0 mi WNW 16.1 mph 23.0 mph N/A   Clear
7:15 AM 41.0 °F 33.1 °F 33.8 °F 76% 29.70 in 10.0 mi West 15.0 mph - N/A   Mostly Cloudy
7:40 AM 41.0 °F 32.5 °F 32.0 °F 70% 29.72 in 10.0 mi West 17.3 mph 24.2 mph N/A   Scattered Clouds
7:52 AM 41.0 °F 33.1 °F 32.0 °F 70% 29.74 in 10.0 mi West 15.0 mph - N/A   Clear
8:52 AM 43.0 °F 34.8 °F 30.9 °F 62% 29.79 in 10.0 mi West 18.4 mph 25.3 mph N/A   Clear
9:52 AM 46.0 °F 38.3 °F 28.9 °F 51% 29.82 in 10.0 mi WNW 20.7 mph - N/A   Clear
10:52 AM 48.9 °F - 28.0 °F 44% 29.86 in 10.0 mi WNW 23.0 mph 28.8 mph N/A   Clear
11:52 AM 51.1 °F - 27.0 °F 39% 29.88 in 10.0 mi West 20.7 mph 29.9 mph N/A   Clear
12:52 PM 52.0 °F - 28.0 °F 40% 29.88 in 10.0 mi West 17.3 mph 23.0 mph N/A   Clear
1:52 PM 54.0 °F - 25.0 °F 33% 29.89 in 10.0 mi West 18.4 mph 25.3 mph N/A   Clear
2:52 PM 54.0 °F - 21.0 °F 28% 29.89 in 10.0 mi West 12.7 mph 21.9 mph N/A   Clear
3:52 PM 54.0 °F - 19.9 °F 26% 29.92 in 10.0 mi West 11.5 mph - N/A   Clear
4:52 PM 50.0 °F - 19.9 °F 31% 29.95 in 10.0 mi WSW 6.9 mph - N/A   Clear
5:52 PM 43.0 °F 39.5 °F 26.1 °F 51% 29.98 in 5.0 mi South 5.8 mph - N/A   Haze
6:52 PM 41.0 °F 37.1 °F 26.1 °F 55% 30.00 in 10.0 mi South 5.8 mph - N/A   Clear
7:52 PM 36.0 °F 33.3 °F 26.1 °F 67% 30.04 in 10.0 mi SSW 3.5 mph - N/A   Clear
8:52 PM 37.0 °F - 21.9 °F 54% 30.06 in 10.0 mi Calm Calm - N/A   Clear
9:52 PM 34.0 °F 31.0 °F 21.9 °F 61% 30.07 in 10.0 mi SSE 3.5 mph - N/A   Clear
10:52 PM 32.0 °F - 19.9 °F 61% 30.08 in 10.0 mi Calm Calm - N/A   Clear